Content
SEND FEEDBACK

Daily
Averages
Monthly
Summary
United Kingdom

YORK, ENGLAND


Home > Europe > United Kingdom > England
Elevation: 27 feet     Latitude: 53 50N     Longitude: 001 11W

WEATHER
 
SELECT A DAY
Number of Records: 48,838;   Date Range: 6/27/01 - 12/19/13
 
SHARE

PRINT THIS DATA

[ ← Previous Day ]
WEATHER ALMANAC - JANUARY 21, 2013
[ Next Day → ]
[ °C ]   °F
Weather ElementAverageHighLow
Temperature31.5 °F33.8 °F (7:50 am)30 °F (8:50 pm)
Dewpoint30.4 °F32 °F (1:50 am)28.4 °F (4:50 pm)
Humidity95.5 %100 % (1:50 am)90 % (5:50 pm)
Barometer29.38 in29.51 in (11:50 pm)29.30 in (5:50 am)
Wind Speed8.3 mph13.8 mph (11:50 am)
Weather ElementAverage
Visibility3.2 mi
Wind DirectionESE (100.6 °)

Weather ElementTotal
Precipitation---
Heating Degree Days33.1 (Base 65)
Averaged from 31 records on January 21, 2013
WEATHER CONDITIONS BREAKOUT
WIND DIRECTION BREAKOUT
WEATHER BY HOUR - JANUARY 21, 2013
[ °C ]   °F
Local TimeTemperatureDewpointHumidityBarometerVisibilityWind DirectionWind SpeedGust SpeedPrecipitationEventsConditions
1:50 AM32.0 °F32.0 °F100 %29.33 in0.9 miNE (40°)11.5 mphSnowLight Snow
2:50 AM32.0 °F32.0 °F100 %29.34 in1.0 miENE (60°)9.2 mphSnowLight Snow
2:50 AM32.0 °F32.0 °F100 %29.33 in0.8 miENE (60°)9.2 mphSnowLight Snow
3:50 AM32.0 °F32.0 °F100 %29.33 in3.1 miENE (60°)11.5 mphSnowLight Snow
4:50 AM32.0 °F32.0 °F100 %29.33 in5.6 miENE (60°)12.7 mphSnowSnow Grains
5:50 AM33.0 °F32.0 °F93 %29.32 in9.0 miENE (60°)11.5 mphSnowSnow Grains
5:50 AM32.0 °F32.0 °F100 %29.30 in6.2 miENE (60°)11.5 mphSnowSnow Grains
6:50 AM32.0 °F32.0 °F100 %29.33 in0.6 miENE (70°)10.4 mphSnowSnow Showers
7:50 AM33.8 °F32.0 °F93 %29.33 in3.1 miENE (60°)10.4 mphSnowLight Snow
8:50 AM33.0 °F32.0 °F96 %29.34 in2.0 miENE (70°)11.5 mphSnowSnow
8:50 AM33.8 °F32.0 °F93 %29.33 in1.6 miENE (70°)11.5 mphSnowSnow
9:50 AM33.8 °F32.0 °F93 %29.33 in3.1 miEast (90°)6.9 mphSnowLight Snow
10:50 AM33.8 °F32.0 °F93 %29.36 in3.1 miEast (80°)9.2 mphSnowSnow Grains
11:50 AM32.0 °F30.0 °F91 %29.36 in4.0 miEast (100°)13.8 mphSnowSnow Grains
11:50 AM32.0 °F30.2 °F93 %29.36 in3.7 miEast (100°)13.8 mphSnowSnow Grains
12:50 PM32.0 °F30.2 °F93 %29.36 in2.8 miESE (120°)6.9 mphSnowLight Snow
1:50 PM32.0 °F30.2 °F93 %29.36 in3.1 miSE (130°)5.8 mphSnowSnow Grains
2:50 PM31.0 °F29.0 °F91 %29.37 in4.0 miSE (140°)4.6 mphRainDrizzle
2:50 PM30.2 °F30.2 °F100 %29.36 in3.7 miSE (140°)4.6 mphHaze
3:50 PM30.2 °F30.2 °F100 %29.39 in2.5 miESE (120°)9.2 mphSnowSnow Grains
4:50 PM30.2 °F28.4 °F93 %29.39 in4.3 miESE (120°)8.1 mphHaze
5:50 PM31.0 °F29.0 °F90 %29.42 in4.0 miSE (140°)3.5 mphLight Haze
5:50 PM30.2 °F28.4 °F93 %29.42 in3.7 miSE (140°)3.5 mphHaze
6:50 PM30.2 °F28.4 °F93 %29.42 in3.1 miSE (130°)8.1 mphHaze
7:50 PM30.2 °F28.4 °F93 %29.44 in3.1 miSE (140°)5.8 mphHaze
8:50 PM30.0 °F29.0 °F95 %29.48 in3.0 miSE (130°)5.8 mphMist
8:50 PM30.2 °F28.4 °F93 %29.47 in2.8 miSE (130°)5.8 mphMostly Cloudy
9:50 PM30.2 °F28.4 °F93 %29.47 inSE (140°)3.5 mphMostly Cloudy
10:50 PM30.2 °F30.2 °F100 %29.47 inESE (120°)6.9 mphOvercast
11:50 PM30.0 °F29.0 °F96 %29.51 in2.0 miESE (120°)5.8 mphMist
11:50 PM30.2 °F30.2 °F100 %29.50 inESE (120°)5.8 mphOvercast
Hourly data recorded from EGXG, located miles away from York, England







STORIES FROM OUR PARTNERS